Wind_Speed
15 17 18 20 14 15 25 29 24 22 23 25 24 26 20 21 19 19 16 14 26 31 24 16 15 14 14 14 14 14 15 16 17 18 20 20 17 15 14 11 8 8 6 5 4 5 6 7 9
15 16 20 18 19 24 30 23 25 25 21 14 23 33 29 23 21 23 22 16 15 19 25 22 17 16 15 15 15 14 15 17 18 19 20 20 19 16 13 11 10 8 6 5 5 6 8 9 11
17 18 20 15 25 32 26 21 19 16 21 20 20 24 27 29 22 30 27 24 14 15 20 23 20 17 17 16 16 15 16 18 19 20 22 22 19 17 14 11 11 9 7 6 8 9 10 11 11
19 21 25 26 26 26 37 26 25 22 20 26 27 19 29 29 34 32 25 30 26 26 20 22 22 19 19 18 17 17 17 18 20 22 24 23 20 17 15 13 12 10 9 9 9 10 11 10 10
19 23 25 24 35 29 22 18 16 28 21 23 31 30 27 28 34 38 28 34 30 32 30 22 24 22 21 20 18 18 18 20 22 24 25 25 22 19 17 15 14 11 11 11 11 11 10 9 8
20 23 22 30 32 25 25 27 26 25 27 23 29 32 26 32 36 39 34 32 27 31 38 26 22 24 23 22 20 19 19 21 24 25 24 25 23 21 17 17 15 14 13 12 12 11 10 8 7
24 24 32 29 29 28 25 23 27 29 29 28 25 32 32 32 33 41 35 34 35 27 34 29 26 26 23 23 22 20 21 21 23 25 28 25 23 20 19 18 16 16 15 14 12 10 9 7 6
21 28 37 35 31 36 27 28 27 25 32 30 28 31 32 31 28 33 39 40 37 31 36 43 30 25 24 25 25 23 26 26 27 28 28 25 22 20 21 19 18 18 16 15 13 11 8 6 5
20 31 39 33 29 34 29 30 34 32 30 31 34 35 28 34 35 38 31 38 39 38 39 39 30 29 25 27 28 26 28 31 30 29 26 27 24 23 23 21 20 19 17 15 12 10 7 5 4
24 35 36 31 26 29 27 28 29 29 33 30 34 34 31 37 40 32 32 36 42 42 43 39 34 33 26 27 31 29 31 33 31 29 26 27 24 26 24 23 22 20 18 15 12 9 7 6 5
22 35 29 29 24 24 29 35 29 29 36 34 28 31 41 37 34 47 40 37 42 40 49 56 26 19 35 31 35 39 31 34 30 30 30 27 28 29 26 25 23 20 18 15 12 10 8 7 7
25 29 28 28 24 28 34 30 30 36 33 32 37 34 30 43 44 44 34 33 40 39 40 56 48 30 37 38 38 41 43 35 39 31 27 28 31 29 28 26 23 21 18 15 13 10 8 8 8
23 27 26 25 28 31 30 37 35 35 39 35 39 36 33 28 39 40 41 37 42 31 26 41 57 25 29 39 42 43 46 46 39 35 35 34 32 30 30 28 25 22 19 16 13 11 10 9 9
21 19 21 22 26 30 30 34 33 42 40 37 39 41 34 29 31 41 38 38 32 23 25 39 66 41 22 40 42 43 45 46 44 41 39 37 33 33 31 28 25 22 18 15 13 11 10 10 10
12 20 23 26 29 33 25 39 38 33 39 43 45 33 38 48 35 36 41 33 32 23 22 28 45 47 20 39 35 40 43 44 41 40 39 36 33 32 29 26 23 20 18 16 14 13 12 11 11
13 19 29 19 13 23 23 47 38 30 26 41 35 35 35 34 32 45 22 37 28 27 21 15 34 47 28 28 32 29 34 39 38 37 36 35 33 31 29 27 24 22 20 17 15 14 13 14 14
12 22 19 25 18 24 26 42 35 29 27 33 31 29 34 28 27 43 29 24 29 29 23 14 19 29 30 35 31 34 34 30 33 35 35 34 33 32 30 29 26 24 21 19 17 16 15 16 17
13 16 23 28 26 16 26 35 27 20 31 30 30 30 31 19 25 33 33 31 38 26 28 18 28 20 18 43 41 28 24 29 30 34 35 35 33 32 31 29 27 25 23 21 19 18 17 17 20
23 26 27 27 21 19 25 26 16 21 17 28 30 18 23 27 22 29 32 30 20 21 32 34 28 34 23 41 32 31 29 26 28 31 33 34 34 33 32 30 28 27 25 23 23 21 21 20 25
25 26 27 22 14 13 14 25 18 21 13 11 22 28 22 26 27 27 31 29 29 19 21 22 27 24 41 39 32 25 22 24 27 29 32 33 33 33 32 30 29 28 26 26 27 25 22 24 26
14 20 21 22 15 14 10 18 16 17 20 27 26 21 22 25 27 32 30 26 39 26 26 19 22 35 38 42 32 29 28 22 22 26 29 30 31 32 31 30 30 30 29 32 29 29 27 26 25
14 10 19 22 9 7 15 3 14 20 20 20 23 17 12 22 26 28 21 26 28 25 25 25 27 40 37 36 32 37 29 29 27 26 24 24 27 27 26 27 27 30 31 31 29 32 34 30 34
16 15 10 18 18 17 12 6 6 10 9 19 23 20 13 16 26 20 21 9 35 26 23 24 33 37 47 26 24 29 31 32 23 27 31 34 34 31 36 26 28 25 26 26 29 33 35 36 34
15 13 10 15 19 4 4 3 6 9 12 16 17 17 18 20 12 10 10 12 27 29 27 22 38 37 40 34 31 18 31 28 33 27 28 30 37 36 38 34 30 32 33 37 40 41 40 45 39
10 8 4 3 1 2 4 5 13 12 23 23 22 21 19 18 14 18 18 13 22 24 33 18 20 21 20 24 26 21 20 14 12 31 41 41 35 41 47 38 38 33 38 41 50 35 21 15 6
7 9 5 4 3 3 10 9 13 13 31 27 25 28 20 15 24 26 19 18 23 21 21 15 12 6 5 1 17 14 15 14 9 7 8 16 15 14 38 33 36 29 42 35 21 22 14 17 17
2 6 13 6 5 2 8 5 22 21 33 33 32 29 28 27 20 17 19 19 18 17 14 11 7 3 1 1 1 3 5 7 7 8 7 9 9 11 13 12 9 12 13 15 16 20 20 20 20
5 10 5 5 5 4 5 10 14 24 31 28 28 26 23 21 15 18 18 16 14 12 9 6 3 4 4 6 8 13 14 14 14 13 13 14 14 14 13 14 16 16 18 20 22 25 27 20 20
13 12 8 9 3 2 3 6 12 21 29 25 28 23 26 21 15 17 14 15 10 6 3 4 5 7 8 9 9 9 11 14 16 17 18 18 20 20 20 21 21 20 20 21 22 20 20 21 22
17 15 10 5 7 20 10 8 11 19 27 28 27 25 24 21 16 15 14 13 9 7 5 3 2 3 5 7 8 9 12 14 16 18 18 19 21 22 22 23 22 21 21 21 22 23 23 24 24
Wind_Direction
238 233 221 224 221 232 239 237 231 229 237 238 240 243 240 229 247 233 257 235 247 251 248 246 243 234 226 225 222 208 203 199 197 188 184 183 183 179 178 175 177 167 153 139 128 120 122 124 120
239 238 229 217 231 233 244 240 237 245 222 232 237 236 238 220 250 239 227 235 239 253 241 245 238 232 225 223 222 214 206 200 196 191 188 187 189 185 181 182 178 171 158 151 138 135 133 128 121
230 231 229 228 231 233 242 232 249 251 246 237 236 240 229 218 232 245 236 241 255 261 237 238 233 225 224 220 220 217 209 202 196 192 188 187 193 188 186 187 181 173 166 158 149 145 138 132 127
225 226 227 223 231 247 239 240 231 244 247 230 228 247 232 227 233 249 242 237 251 270 262 235 232 225 223 215 216 215 211 203 197 193 187 184 196 193 190 190 182 178 172 165 155 149 142 139 135
226 224 234 243 239 232 237 257 272 247 241 236 227 241 246 241 239 246 242 245 256 253 262 241 229 224 222 217 210 213 209 203 196 190 182 186 194 195 194 191 184 183 175 167 158 153 150 145 139
223 227 233 238 243 245 248 235 235 244 252 237 236 233 247 256 250 259 254 247 252 245 246 246 217 223 221 216 208 208 205 199 194 184 181 192 194 192 196 189 188 182 175 169 163 159 154 150 144
232 226 243 248 252 248 246 251 253 253 244 245 236 242 239 253 254 251 247 241 247 243 235 236 220 222 224 216 207 196 197 193 184 180 191 193 194 194 193 189 186 181 174 171 167 163 158 154 149
240 242 246 241 250 256 248 248 244 248 254 237 235 247 239 249 245 244 251 246 249 242 239 223 216 226 226 222 208 191 198 192 190 193 194 195 195 199 193 191 187 180 177 177 173 169 166 165 169
244 243 249 248 250 260 256 255 239 239 247 242 235 240 238 245 252 249 236 245 242 240 233 217 207 201 224 229 215 189 196 197 197 199 196 196 197 199 193 193 188 183 180 180 178 178 182 188 203
243 251 260 262 255 256 256 253 255 251 241 242 241 234 232 250 254 251 248 234 243 246 245 218 178 174 200 228 219 202 195 201 200 201 203 199 199 197 195 193 189 187 185 183 185 191 203 218 231
259 260 266 255 245 253 261 251 239 245 245 242 239 247 236 250 260 246 249 238 235 246 240 224 212 258 181 204 222 208 198 195 198 204 195 190 197 196 195 192 190 189 186 187 196 208 222 236 246
253 259 261 267 265 260 246 248 248 243 244 239 235 243 234 243 257 251 253 236 248 249 269 253 221 238 201 205 212 212 197 200 206 200 205 202 200 198 193 192 190 190 191 198 208 221 235 247 255
260 271 268 273 276 262 261 249 242 240 242 231 228 236 227 241 240 242 255 256 244 249 264 267 252 235 187 207 210 213 205 205 209 203 212 206 199 197 192 193 192 194 200 205 216 225 235 248 255
288 271 264 259 252 266 264 262 251 236 236 233 228 228 233 250 231 240 246 248 240 244 262 280 230 238 230 192 206 210 206 206 209 208 209 203 198 197 197 196 196 200 206 214 226 238 242 244 246
286 275 276 263 261 259 256 261 254 254 239 233 226 238 232 240 233 239 238 249 229 243 255 287 241 235 242 186 196 206 206 207 208 207 209 203 199 200 200 198 201 204 215 227 238 247 253 253 250
278 274 270 294 280 262 244 260 257 252 254 235 232 237 236 240 255 240 245 245 218 225 231 246 230 232 220 175 184 200 206 210 207 205 203 203 200 200 201 202 205 214 224 235 247 256 258 260 257
271 255 270 297 304 288 239 258 266 253 231 241 226 234 244 239 236 232 239 263 235 231 226 212 210 247 249 200 191 187 197 205 202 202 203 203 202 202 205 208 214 222 230 240 247 257 261 266 266
282 299 293 284 288 296 238 253 269 254 231 215 228 238 229 239 220 232 239 255 229 236 217 217 193 211 229 203 202 200 197 192 199 199 201 204 206 208 212 217 223 231 238 245 252 258 263 264 262
275 287 289 290 300 281 230 251 259 259 218 208 228 238 230 232 240 232 221 237 223 219 207 215 215 220 218 192 194 202 209 204 199 201 203 207 210 214 219 226 231 237 241 249 258 260 266 267 273
264 271 284 291 284 267 233 245 259 243 271 230 234 235 232 234 237 228 216 222 212 223 203 190 191 195 194 190 187 190 196 205 205 205 210 211 215 219 224 231 237 243 249 253 258 261 267 276 275
268 265 280 287 297 246 248 255 244 225 225 234 241 229 249 223 224 212 226 219 226 206 212 202 200 186 186 188 187 191 191 198 208 212 215 219 225 229 233 237 243 248 256 258 260 267 272 273 273
275 275 278 271 302 263 209 244 197 223 238 235 224 215 231 210 205 209 228 234 225 227 206 196 195 191 182 180 190 197 196 199 203 213 218 227 230 233 233 239 250 254 254 262 270 274 275 269 272
270 287 295 293 288 281 213 229 345 269 241 213 217 233 218 194 207 237 236 182 220 207 206 196 195 187 191 192 181 199 193 210 213 216 215 218 228 240 231 237 244 256 268 273 277 281 279 270 266
288 288 280 281 276 214 34 315 3 12 138 172 205 219 179 197 209 210 183 210 164 201 187 171 188 198 195 208 197 204 212 219 225 227 234 239 234 244 243 237 250 257 264 272 279 282 290 265 268
244 244 271 246 257 5 354 80 24 74 117 143 149 157 161 180 189 127 120 107 188 160 179 165 159 158 189 208 213 211 236 227 245 234 241 239 243 248 236 244 254 256 265 272 269 278 284 259 183
217 229 285 332 353 33 44 8 10 62 124 135 143 140 143 138 111 112 98 93 84 118 136 123 148 122 148 237 222 236 244 253 279 251 302 252 284 237 236 248 243 262 278 262 247 244 211 218 238
248 276 295 278 265 41 25 57 44 96 114 126 119 121 121 126 139 136 126 130 129 122 121 110 110 111 346 10 274 284 254 261 277 271 265 258 265 268 235 255 278 251 264 254 238 240 233 238 232
20 352 350 309 354 51 58 34 53 93 101 116 117 120 118 126 128 132 136 132 124 129 120 133 175 220 257 264 255 248 256 270 276 275 271 264 262 267 275 272 274 266 261 258 256 243 238 242 237
33 8 331 305 298 47 71 29 34 85 106 114 113 113 99 90 107 113 118 109 131 131 143 190 221 249 263 267 271 269 261 263 269 272 272 271 269 268 268 268 269 268 263 253 248 248 244 250 248
36 360 351 325 22 84 96 61 50 83 97 100 101 107 115 114 112 113 109 108 110 114 125 139 179 231 249 260 263 264 268 271 274 278 277 273 273 270 268 267 266 265 264 259 252 249 247 248 250
Height
3104 3105 3107 3110 3116 3109 3104 3105 3112 3112 3118 3124 3127 3129 3127 3131 3129 3132 3129 3128 3126 3135 3140 3139 3140 3142 3143 3144 3145 3146 3148 3149 3151 3153 3155 3157 3159 3161 3162 3164 3165 3166 3166 3167 3168 3169 3169 3170 3170
3101 3103 3104 3106 3106 3103 3098 3105 3108 3112 3114 3118 3124 3123 3123 3129 3124 3125 3129 3128 3129 3131 3136 3137 3138 3140 3141 3143 3144 3146 3147 3148 3150 3152 3154 3157 3159 3161 3163 3164 3165 3166 3167 3168 3169 3170 3170 3171 3172
3098 3099 3101 3100 3097 3096 3095 3103 3107 3110 3113 3114 3118 3118 3120 3124 3121 3119 3125 3125 3129 3130 3132 3135 3136 3137 3139 3141 3143 3145 3145 3147 3148 3151 3153 3157 3159 3161 3163 3164 3165 3166 3168 3169 3169 3170 3171 3172 3173
3094 3096 3096 3090 3088 3091 3096 3100 3101 3105 3111 3112 3114 3112 3113 3118 3117 3114 3123 3124 3128 3129 3131 3133 3133 3135 3137 3138 3141 3143 3144 3146 3147 3149 3152 3155 3158 3160 3162 3164 3165 3167 3168 3169 3170 3172 3172 3173 3174
3089 3090 3087 3084 3084 3090 3095 3099 3101 3099 3102 3108 3111 3110 3111 3115 3114 3115 3122 3123 3125 3126 3130 3130 3131 3132 3135 3136 3138 3141 3143 3144 3146 3148 3151 3154 3157 3159 3162 3163 3165 3167 3168 3170 3171 3172 3173 3174 3175
3083 3084 3081 3078 3082 3087 3091 3094 3095 3096 3097 3101 3106 3109 3111 3110 3114 3113 3118 3119 3120 3122 3127 3127 3128 3129 3132 3134 3136 3138 3141 3143 3145 3147 3151 3154 3156 3158 3161 3162 3165 3166 3168 3170 3171 3173 3174 3175 3176
3079 3079 3074 3077 3080 3082 3087 3092 3092 3093 3093 3095 3102 3105 3110 3106 3107 3108 3111 3114 3114 3118 3120 3123 3124 3126 3129 3132 3134 3136 3139 3142 3145 3147 3149 3152 3155 3157 3160 3162 3164 3166 3168 3170 3172 3173 3175 3176 3176
3075 3074 3068 3069 3075 3074 3082 3082 3084 3088 3089 3092 3095 3098 3104 3102 3098 3103 3105 3109 3110 3112 3114 3112 3115 3123 3127 3130 3132 3135 3137 3140 3143 3145 3148 3150 3154 3156 3159 3162 3164 3165 3167 3170 3171 3173 3175 3176 3177
3068 3065 3057 3064 3068 3069 3076 3075 3076 3079 3080 3085 3088 3092 3098 3095 3091 3097 3098 3103 3105 3107 3109 3098 3107 3110 3123 3128 3130 3132 3135 3138 3140 3144 3147 3149 3152 3155 3157 3160 3162 3165 3167 3169 3171 3173 3175 3176 3176
3058 3054 3053 3061 3063 3063 3066 3069 3071 3074 3073 3076 3082 3084 3090 3088 3086 3088 3092 3096 3101 3103 3104 3102 3094 3103 3113 3124 3128 3130 3132 3135 3138 3141 3144 3146 3149 3153 3156 3158 3161 3163 3166 3169 3171 3172 3174 3175 3176
3050 3043 3050 3052 3054 3057 3057 3058 3062 3063 3063 3070 3075 3081 3083 3081 3078 3081 3084 3091 3096 3096 3097 3090 3083 3083 3103 3107 3121 3127 3130 3132 3136 3138 3137 3143 3146 3150 3153 3156 3159 3163 3165 3168 3170 3172 3173 3174 3176
3045 3043 3045 3046 3049 3048 3047 3049 3050 3053 3055 3060 3064 3067 3070 3075 3071 3075 3074 3082 3087 3090 3089 3082 3088 3092 3096 3104 3112 3122 3125 3127 3132 3134 3134 3139 3144 3147 3151 3155 3158 3162 3164 3166 3169 3171 3172 3173 3174
3039 3039 3040 3041 3041 3041 3042 3040 3042 3042 3045 3050 3052 3058 3061 3061 3063 3065 3069 3078 3079 3082 3083 3086 3081 3087 3092 3101 3106 3115 3119 3123 3126 3132 3134 3138 3143 3146 3149 3152 3156 3160 3163 3165 3167 3169 3170 3171 3172
3036 3034 3033 3034 3035 3036 3037 3034 3036 3036 3041 3043 3045 3048 3050 3052 3057 3061 3064 3069 3074 3076 3076 3069 3074 3083 3085 3089 3098 3109 3113 3118 3124 3129 3131 3135 3140 3143 3147 3151 3155 3159 3162 3164 3166 3167 3168 3169 3170
3033 3030 3030 3029 3029 3029 3034 3025 3024 3029 3034 3036 3039 3041 3044 3047 3050 3055 3058 3062 3070 3071 3071 3066 3065 3076 3081 3079 3092 3104 3109 3113 3120 3125 3129 3134 3138 3142 3146 3151 3155 3158 3161 3163 3165 3165 3166 3167 3168
3032 3031 3027 3023 3024 3025 3030 3009 3018 3024 3027 3027 3031 3036 3039 3042 3047 3053 3053 3056 3058 3064 3070 3069 3070 3075 3083 3086 3094 3104 3106 3111 3117 3122 3128 3132 3137 3142 3145 3149 3152 3156 3158 3160 3162 3163 3164 3165 3165
3031 3025 3025 3021 3021 3020 3020 3006 3011 3016 3020 3021 3027 3031 3033 3038 3044 3046 3049 3054 3056 3061 3062 3069 3069 3073 3084 3087 3089 3095 3103 3109 3114 3120 3126 3131 3135 3140 3143 3147 3149 3153 3155 3157 3158 3160 3161 3162 3164
3027 3027 3022 3018 3017 3012 3011 3004 3007 3012 3013 3015 3022 3026 3031 3033 3038 3042 3047 3051 3050 3055 3060 3062 3062 3073 3072 3083 3085 3091 3096 3103 3111 3116 3123 3128 3133 3137 3141 3144 3146 3149 3152 3154 3155 3156 3157 3157 3159
3026 3024 3018 3013 3014 3006 3004 3005 3006 3009 3009 3014 3018 3023 3027 3031 3035 3038 3044 3047 3048 3050 3053 3056 3057 3064 3073 3078 3089 3095 3100 3104 3108 3114 3119 3124 3128 3133 3136 3140 3142 3145 3148 3149 3150 3151 3153 3154 3155
3022 3020 3015 3012 3010 3007 3005 3004 3006 3007 3008 3012 3016 3019 3022 3027 3028 3032 3037 3042 3047 3046 3049 3053 3057 3062 3070 3080 3087 3095 3100 3104 3108 3111 3115 3119 3123 3127 3131 3135 3138 3140 3144 3144 3145 3146 3147 3150 3151
3017 3017 3015 3012 3009 3008 3006 3004 3003 3007 3006 3009 3011 3014 3018 3021 3024 3029 3035 3037 3043 3041 3047 3051 3057 3061 3068 3077 3082 3087 3094 3099 3104 3109 3113 3116 3121 3125 3128 3131 3133 3136 3139 3140 3139 3141 3142 3145 3145
3017 3016 3011 3008 3008 3004 3004 3002 3001 3002 3003 3004 3006 3010 3014 3018 3022 3028 3030 3032 3036 3035 3046 3051 3056 3061 3067 3075 3081 3086 3093 3095 3101 3106 3110 3114 3117 3120 3123 3126 3128 3131 3133 3135 3135 3135 3137 3138 3139
3014 3012 3008 3007 3004 3003 2999 3002 2999 2994 2997 2999 3004 3008 3013 3018 3024 3026 3026 3026 3030 3037 3044 3047 3051 3061 3067 3073 3076 3082 3089 3095 3095 3101 3103 3107 3110 3112 3115 3118 3124 3126 3127 3128 3129 3130 3130 3131 3130
3012 3009 3005 3003 3002 2997 2998 2999 2995 2993 2994 2998 3004 3008 3014 3019 3023 3026 3028 3026 3024 3036 3043 3048 3054 3060 3068 3073 3077 3082 3087 3091 3095 3095 3100 3103 3105 3108 3112 3114 3115 3116 3118 3121 3122 3121 3121 3123 3121
3011 3011 3007 3002 2997 2997 2997 2997 2996 2993 2994 3000 3004 3009 3015 3019 3023 3026 3028 3031 3030 3035 3044 3049 3057 3064 3068 3072 3078 3080 3082 3086 3089 3091 3094 3098 3098 3100 3102 3105 3108 3108 3112 3112 3113 3119 3114 3112 3115
3012 3012 3008 3002 2999 2997 2999 2998 2999 2996 2998 3003 3008 3009 3015 3021 3026 3029 3032 3034 3036 3040 3046 3055 3058 3061 3065 3068 3071 3076 3080 3083 3085 3087 3090 3090 3093 3091 3096 3098 3097 3098 3104 3100 3103 3111 3110 3108 3109
3012 3010 3008 3004 3001 3002 3007 3006 3004 3004 3003 3010 3014 3018 3022 3027 3031 3036 3038 3041 3045 3049 3055 3058 3062 3065 3067 3069 3071 3075 3079 3081 3085 3084 3086 3088 3089 3090 3091 3092 3092 3095 3098 3099 3100 3103 3103 3103 3104
3013 3013 3009 3006 3004 3005 3011 3009 3013 3010 3009 3015 3019 3025 3027 3031 3034 3038 3042 3044 3047 3054 3057 3059 3063 3066 3067 3070 3072 3076 3078 3077 3079 3081 3083 3085 3088 3088 3088 3089 3091 3092 3093 3094 3095 3096 3097 3096 3099
3017 3015 3013 3010 3007 3008 3013 3024 3021 3018 3019 3022 3022 3026 3029 3033 3035 3040 3045 3047 3054 3055 3058 3061 3064 3065 3066 3068 3071 3071 3073 3075 3077 3078 3080 3081 3083 3084 3084 3085 3086 3085 3088 3088 3090 3091 3090 3092 3093
3019 3017 3015 3012 3012 3010 3019 3031 3029 3028 3027 3028 3029 3034 3036 3039 3043 3046 3048 3050 3051 3056 3059 3061 3061 3062 3065 3066 3068 3070 3073 3073 3073 3075 3076 3076 3077 3078 3078 3079 3079 3079 3079 3081 3083 3084 3084 3086 3086